When you browse on this site, cookies collect data to enhance your experience and personalize the content and advertising you see.
Visit our Privacy Policy to learn more. By continuing to use the site, you agree to this use of cookies and data.
  • In Austria
  • List of Countries
  • For 7 days
  • Water Temperature
  • Satellite Maps
  • Weather Map
  • News
  • Weather Widgets
  • user-avatar
    Login

    Hourly Weather Troy

    Today, 17 February, Sunday

    Time Temperature Precipitation Wind Pressure Humidity
    00:00 -7°C° 0 mm 3 mps 744 mmHg 77%
    01:00 -8°C° 0 mm 3 mps 744 mmHg 78%
    02:00 -8°C° 0 mm 3 mps 743 mmHg 80%
    03:00 -8°C° 0 mm 3 mps 743 mmHg 81%
    04:00 -8°C° 0 mm 3 mps 743 mmHg 80%
    05:00 -9°C° 0 mm 3 mps 743 mmHg 79%
    06:00 -9°C° 0 mm 3 mps 743 mmHg 78%
    07:00 -8°C° 0 mm 3 mps 743 mmHg 77%
    08:00 -8°C° 0 mm 3 mps 742 mmHg 76%
    09:00 -8°C° 0 mm 3 mps 742 mmHg 75%
    10:00 -7°C° 0 mm 3 mps 742 mmHg 73%
    11:00 -8°C° 0 mm 4 mps 741 mmHg 70%
    12:00 -7°C° 0 mm 4 mps 741 mmHg 68%
    13:00 -7°C° 0 mm 4 mps 740 mmHg 68%
    14:00 -6°C° 0 mm 5 mps 739 mmHg 68%
    15:00 -6°C° 0 mm 5 mps 739 mmHg 69%
    16:00 -7°C° 0.5 mm 5 mps 739 mmHg 76%
    17:00 -7°C° 0.5 mm 5 mps 739 mmHg 83%
    18:00 -7°C° 0.5 mm 5 mps 739 mmHg 89%
    19:00 -8°C° 0.5 mm 5 mps 739 mmHg 90%
    20:00 -8°C° 0.5 mm 5 mps 739 mmHg 90%
    21:00 -8°C° 0.5 mm 5 mps 739 mmHg 90%
    22:00 -10°C° 0.1 mm 5 mps 739 mmHg 90%
    23:00 -10°C° 0.1 mm 5 mps 739 mmHg 89%

    Tomorrow, 18 February, Monday

    Time Temperature Precipitation Wind Pressure Humidity
    00:00 -10°C° 0.1 mm 5 mps 740 mmHg 89%
    01:00 -9°C° 0 mm 4 mps 740 mmHg 88%
    02:00 -10°C° 0 mm 4 mps 740 mmHg 87%
    03:00 -10°C° 0 mm 4 mps 741 mmHg 86%
    04:00 -10°C° 0.1 mm 4 mps 741 mmHg 85%
    05:00 -10°C° 0.1 mm 4 mps 742 mmHg 85%
    06:00 -10°C° 0.1 mm 4 mps 743 mmHg 85%
    07:00 -9°C° 0.1 mm 4 mps 744 mmHg 83%
    08:00 -9°C° 0.1 mm 4 mps 744 mmHg 81%
    09:00 -9°C° 0.1 mm 4 mps 745 mmHg 80%
    10:00 -8°C° 0 mm 4 mps 746 mmHg 78%
    11:00 -8°C° 0 mm 4 mps 747 mmHg 76%
    12:00 -6°C° 0 mm 3 mps 747 mmHg 73%
    13:00 -6°C° 0 mm 3 mps 748 mmHg 73%
    14:00 -6°C° 0 mm 3 mps 748 mmHg 72%
    15:00 -6°C° 0 mm 3 mps 749 mmHg 72%
    16:00 -7°C° 0 mm 3 mps 749 mmHg 74%
    17:00 -8°C° 0 mm 3 mps 750 mmHg 77%
    18:00 -7°C° 0 mm 2 mps 751 mmHg 79%
    19:00 -8°C° 0 mm 2 mps 752 mmHg 81%
    20:00 -7°C° 0 mm 1 mps 752 mmHg 82%
    21:00 -8°C° 0 mm 1 mps 753 mmHg 84%
    22:00 -8°C° 0 mm 1 mps 753 mmHg 84%
    23:00 -8°C° 0 mm 0 mps 753 mmHg 85%

    Day after tomorrow, 19 February, Tuesday

    Time Temperature Precipitation Wind Pressure Humidity
    00:00 -8°C° 0 mm 0 mps 753 mmHg 85%
    01:00 -8°C° 0 mm 0 mps 753 mmHg 86%
    02:00 -9°C° 0 mm 0 mps 753 mmHg 86%
    03:00 -9°C° 0 mm 0 mps 754 mmHg 87%
    04:00 -9°C° 0 mm 0 mps 754 mmHg 88%
    05:00 -9°C° 0 mm 1 mps 755 mmHg 88%
    06:00 -9°C° 0 mm 1 mps 755 mmHg 89%
    07:00 -8°C° 0 mm 1 mps 755 mmHg 87%
    08:00 -7°C° 0 mm 1 mps 756 mmHg 84%
    09:00 -6°C° 0 mm 1 mps 756 mmHg 82%
    10:00 -4°C° 0 mm 1 mps 756 mmHg 77%
    11:00 -4°C° 0 mm 1 mps 756 mmHg 72%
    12:00 -3°C° 0 mm 1 mps 756 mmHg 67%
    13:00 -2°C° 0 mm 1 mps 755 mmHg 65%
    14:00 -3°C° 0 mm 0 mps 754 mmHg 63%
    15:00 -3°C° 0 mm 0 mps 754 mmHg 61%
    16:00 -4°C° 0 mm 0 mps 754 mmHg 66%
    17:00 -3°C° 0 mm 1 mps 754 mmHg 71%
    18:00 -4°C° 0 mm 1 mps 754 mmHg 76%
    19:00 -4°C° 0 mm 1 mps 753 mmHg 78%
    20:00 -6°C° 0 mm 2 mps 753 mmHg 80%
    21:00 -6°C° 0 mm 2 mps 753 mmHg 82%
    22:00 -6°C° 0 mm 2 mps 752 mmHg 82%
    23:00 -6°C° 0 mm 2 mps 752 mmHg 82%

    20 February, Wednesday

    Time Temperature Precipitation Wind Pressure Humidity
    00:00 -7°C° 0 mm 3 mps 751 mmHg 82%
    01:00 -7°C° 0 mm 3 mps 750 mmHg 81%
    02:00 -8°C° 0 mm 4 mps 750 mmHg 80%
    03:00 -8°C° 0 mm 4 mps 749 mmHg 79%
    04:00 -8°C° 0.1 mm 5 mps 748 mmHg 80%
    05:00 -8°C° 0.1 mm 5 mps 747 mmHg 80%
    06:00 -8°C° 0.1 mm 5 mps 746 mmHg 81%
    07:00 -9°C° 0.7 mm 6 mps 745 mmHg 84%
    08:00 -9°C° 0.7 mm 6 mps 744 mmHg 87%
    09:00 -9°C° 0.7 mm 6 mps 743 mmHg 90%
    10:00 -7°C° 0.7 mm 5 mps 742 mmHg 91%
    11:00 -7°C° 0.7 mm 5 mps 741 mmHg 92%
    12:00 -6°C° 0.7 mm 5 mps 740 mmHg 93%
    13:00 -5°C° 0.5 mm 4 mps 739 mmHg 94%
    14:00 -4°C° 0.5 mm 3 mps 738 mmHg 95%
    15:00 -3°C° 0.5 mm 2 mps 738 mmHg 96%
    16:00 -3°C° 0.1 mm 2 mps 738 mmHg 96%
    17:00 -3°C° 0.1 mm 2 mps 738 mmHg 96%
    18:00 -2°C° 0.1 mm 2 mps 738 mmHg 97%
    19:00 -2°C° 0 mm 2 mps 738 mmHg 96%
    20:00 -2°C° 0 mm 3 mps 739 mmHg 94%
    21:00 -2°C° 0 mm 3 mps 739 mmHg 93%
    22:00 -4°C° 0 mm 3 mps 740 mmHg 93%
    23:00 -5°C° 0 mm 4 mps 740 mmHg 93%

    21 February, Thursday

    Time Temperature Precipitation Wind Pressure Humidity
    00:00 -5°C° 0 mm 4 mps 741 mmHg 93%
    01:00 -7°C° 0 mm 4 mps 742 mmHg 93%
    02:00 -7°C° 0 mm 3 mps 742 mmHg 93%
    03:00 -7°C° 0 mm 3 mps 743 mmHg 92%
    04:00 -8°C° 0 mm 3 mps 744 mmHg 93%
    05:00 -8°C° 0 mm 2 mps 744 mmHg 94%
    06:00 -9°C° 0 mm 2 mps 745 mmHg 94%
    07:00 -8°C° 0 mm 2 mps 746 mmHg 93%
    08:00 -7°C° 0 mm 2 mps 747 mmHg 92%
    09:00 -6°C° 0 mm 2 mps 748 mmHg 92%
    10:00 -5°C° 0 mm 2 mps 748 mmHg 90%
    11:00 -2°C° 0 mm 1 mps 748 mmHg 89%
    12:00 -1°C° 0 mm 1 mps 748 mmHg 88%
    13:00 -1°C° 0 mm 1 mps 748 mmHg 87%
    14:00 -1°C° 0 mm 1 mps 748 mmHg 86%
    15:00 -1°C° 0 mm 1 mps 748 mmHg 85%
    16:00 -1°C° 0 mm 1 mps 748 mmHg 87%
    17:00 -2°C° 0 mm 0 mps 749 mmHg 88%
    18:00 -3°C° 0 mm 0 mps 749 mmHg 90%
    19:00 -3°C° 0 mm 0 mps 749 mmHg 91%
    20:00 -2°C° 0 mm 1 mps 749 mmHg 91%
    21:00 -2°C° 0 mm 1 mps 749 mmHg 92%
    22:00 -2°C° 0 mm 1 mps 749 mmHg 92%
    23:00 -3°C° 0 mm 1 mps 749 mmHg 93%

    22 February, Friday

    Time Temperature Precipitation Wind Pressure Humidity
    00:00 -3°C° 0 mm 1 mps 749 mmHg 94%
    01:00 -3°C° 0 mm 1 mps 749 mmHg 94%
    02:00 -4°C° 0 mm 1 mps 749 mmHg 94%
    03:00 -4°C° 0 mm 1 mps 749 mmHg 94%
    04:00 -6°C° 0 mm 1 mps 749 mmHg 94%
    05:00 -6°C° 0 mm 1 mps 749 mmHg 94%
    06:00 -6°C° 0 mm 1 mps 749 mmHg 94%
    07:00 -4°C° 0 mm 1 mps 750 mmHg 92%
    08:00 -3°C° 0 mm 1 mps 750 mmHg 90%
    09:00 -2°C° 0 mm 1 mps 750 mmHg 88%
    10:00 -1°C° 0 mm 1 mps 750 mmHg 87%
    11:00 0°C° 0 mm 1 mps 750 mmHg 87%
    12:00 +1°C° 0 mm 1 mps 749 mmHg 86%
    13:00 +1°C° 0 mm 1 mps 749 mmHg 84%
    14:00 0°C° 0 mm 0 mps 749 mmHg 82%
    15:00 0°C° 0 mm 0 mps 749 mmHg 81%
    16:00 0°C° 0 mm 0 mps 749 mmHg 83%
    17:00 0°C° 0 mm 1 mps 749 mmHg 86%
    18:00 0°C° 0 mm 1 mps 749 mmHg 88%
    19:00 -1°C° 0 mm 1 mps 749 mmHg 89%
    20:00 -1°C° 0 mm 1 mps 749 mmHg 91%
    21:00 -2°C° 0 mm 1 mps 749 mmHg 92%
    22:00 -2°C° 0 mm 1 mps 749 mmHg 92%
    23:00 -2°C° 0 mm 1 mps 748 mmHg 93%
    Show more